When you browse on this site, cookies collect data to enhance your experience and personalize the content and advertising you see.
Visit our Privacy Policy to learn more. By continuing to use the site, you agree to this use of cookies and data.
  • In United Kingdom
  • List of Countries
  • For 7 days
  • Water Temperature
  • Weather Map
  • Weather Widgets
  • user-avatar
    Login

    Hourly Weather Manchester

    Today, 26 February, Wednesday

    Time Temperature Precipitation Wind Pressure Humidity
    00:00 +1°C° 0.2 mm 6 mps 741 mmHg 82%
    01:00 +1°C° 0.1 mm 6 mps 741 mmHg 82%
    02:00 +1°C° 0.1 mm 5 mps 741 mmHg 81%
    03:00 0°C° 0.1 mm 5 mps 742 mmHg 80%
    04:00 0°C° 0 mm 5 mps 742 mmHg 80%
    05:00 0°C° 0 mm 4 mps 742 mmHg 80%
    06:00 0°C° 0 mm 4 mps 743 mmHg 80%
    07:00 +1°C° 0 mm 5 mps 744 mmHg 80%
    08:00 +1°C° 0 mm 5 mps 744 mmHg 79%
    09:00 +2°C° 0 mm 6 mps 745 mmHg 78%
    10:00 +2°C° 0.2 mm 7 mps 746 mmHg 75%
    11:00 +1°C° 0.2 mm 8 mps 747 mmHg 72%
    12:00 +2°C° 0.2 mm 8 mps 747 mmHg 69%
    13:00 +2°C° 0.1 mm 8 mps 748 mmHg 66%
    14:00 +2°C° 0.1 mm 8 mps 748 mmHg 62%
    15:00 +2°C° 0.1 mm 8 mps 748 mmHg 58%
    16:00 +2°C° 0 mm 7 mps 748 mmHg 63%
    17:00 +2°C° 0 mm 5 mps 749 mmHg 68%
    18:00 +1°C° 0 mm 4 mps 749 mmHg 72%
    19:00 +1°C° 0 mm 4 mps 748 mmHg 75%
    20:00 +1°C° 0 mm 3 mps 748 mmHg 77%
    21:00 +1°C° 0 mm 3 mps 748 mmHg 79%
    22:00 +1°C° 0.1 mm 3 mps 747 mmHg 81%
    23:00 +1°C° 0.1 mm 3 mps 747 mmHg 83%

    Tomorrow, 27 February, Thursday

    Time Temperature Precipitation Wind Pressure Humidity
    00:00 +2°C° 0.1 mm 3 mps 746 mmHg 85%
    01:00 +1°C° 0.5 mm 3 mps 745 mmHg 89%
    02:00 +1°C° 0.5 mm 3 mps 744 mmHg 92%
    03:00 +1°C° 0.5 mm 3 mps 743 mmHg 96%
    04:00 +2°C° 0.7 mm 2 mps 742 mmHg 96%
    05:00 +3°C° 0.7 mm 1 mps 741 mmHg 96%
    06:00 +3°C° 0.7 mm 1 mps 740 mmHg 96%
    07:00 +3°C° 0.6 mm 1 mps 740 mmHg 96%
    08:00 +2°C° 0.6 mm 2 mps 740 mmHg 97%
    09:00 +1°C° 0.6 mm 3 mps 740 mmHg 97%
    10:00 0°C° 0.1 mm 4 mps 741 mmHg 91%
    11:00 +1°C° 0.1 mm 6 mps 742 mmHg 86%
    12:00 +2°C° 0.1 mm 7 mps 743 mmHg 80%
    13:00 +2°C° 0.1 mm 7 mps 743 mmHg 76%
    14:00 +2°C° 0.1 mm 7 mps 744 mmHg 71%
    15:00 +3°C° 0.1 mm 7 mps 744 mmHg 67%
    16:00 +2°C° 0 mm 7 mps 745 mmHg 69%
    17:00 +2°C° 0 mm 6 mps 746 mmHg 71%
    18:00 +1°C° 0 mm 6 mps 747 mmHg 73%
    19:00 +1°C° 0 mm 6 mps 748 mmHg 74%
    20:00 +1°C° 0 mm 5 mps 749 mmHg 74%
    21:00 +1°C° 0 mm 5 mps 750 mmHg 75%
    22:00 0°C° 0 mm 4 mps 750 mmHg 77%
    23:00 0°C° 0 mm 4 mps 751 mmHg 79%

    Day after tomorrow, 28 February, Friday

    Time Temperature Precipitation Wind Pressure Humidity
    00:00 0°C° 0 mm 4 mps 751 mmHg 80%
    01:00 +1°C° 0 mm 3 mps 751 mmHg 82%
    02:00 +1°C° 0 mm 3 mps 751 mmHg 84%
    03:00 +1°C° 0 mm 3 mps 751 mmHg 86%
    04:00 +1°C° 0 mm 3 mps 751 mmHg 86%
    05:00 +1°C° 0 mm 3 mps 751 mmHg 86%
    06:00 +1°C° 0 mm 3 mps 751 mmHg 86%
    07:00 +1°C° 0 mm 3 mps 750 mmHg 88%
    08:00 +1°C° 0 mm 3 mps 750 mmHg 89%
    09:00 +1°C° 0 mm 4 mps 750 mmHg 91%
    10:00 +1°C° 0 mm 4 mps 749 mmHg 90%
    11:00 +1°C° 0 mm 4 mps 749 mmHg 90%
    12:00 +3°C° 0 mm 4 mps 748 mmHg 89%
    13:00 +3°C° 0.2 mm 4 mps 747 mmHg 91%
    14:00 +3°C° 0.2 mm 4 mps 746 mmHg 92%
    15:00 +3°C° 0.2 mm 4 mps 745 mmHg 94%
    16:00 +3°C° 0.2 mm 4 mps 744 mmHg 94%
    17:00 +3°C° 0.2 mm 4 mps 743 mmHg 94%
    18:00 +3°C° 0.2 mm 4 mps 743 mmHg 94%
    19:00 +3°C° 0.4 mm 4 mps 742 mmHg 94%
    20:00 +3°C° 0.4 mm 4 mps 741 mmHg 94%
    21:00 +3°C° 0.4 mm 4 mps 740 mmHg 95%
    22:00 +4°C° 1.7 mm 4 mps 738 mmHg 95%
    23:00 +4°C° 1.7 mm 4 mps 737 mmHg 96%

    29 February, Saturday

    Time Temperature Precipitation Wind Pressure Humidity
    00:00 +5°C° 1.7 mm 4 mps 736 mmHg 97%
    01:00 +6°C° 1 mm 5 mps 734 mmHg 96%
    02:00 +7°C° 1 mm 5 mps 732 mmHg 95%
    03:00 +8°C° 1 mm 6 mps 730 mmHg 95%
    04:00 +8°C° 0.2 mm 7 mps 729 mmHg 94%
    05:00 +8°C° 0.2 mm 7 mps 728 mmHg 93%
    06:00 +8°C° 0.2 mm 7 mps 727 mmHg 92%
    07:00 +6°C° 1.5 mm 7 mps 727 mmHg 90%
    08:00 +5°C° 1.5 mm 8 mps 727 mmHg 89%
    09:00 +2°C° 1.5 mm 8 mps 727 mmHg 87%
    10:00 +2°C° 0.2 mm 8 mps 727 mmHg 78%
    11:00 +4°C° 0.2 mm 8 mps 728 mmHg 69%
    12:00 +4°C° 0.2 mm 8 mps 729 mmHg 61%
    13:00 +3°C° 0.1 mm 9 mps 728 mmHg 60%
    14:00 +3°C° 0.1 mm 9 mps 728 mmHg 59%
    15:00 +3°C° 0.1 mm 10 mps 727 mmHg 58%
    16:00 +2°C° 0.2 mm 10 mps 726 mmHg 68%
    17:00 +1°C° 0.2 mm 11 mps 726 mmHg 78%
    18:00 -1°C° 0.2 mm 11 mps 725 mmHg 88%
    19:00 -1°C° 0.5 mm 11 mps 725 mmHg 84%
    20:00 +1°C° 0.5 mm 11 mps 725 mmHg 80%
    21:00 +1°C° 0.5 mm 11 mps 725 mmHg 76%
    22:00 +1°C° 0.1 mm 11 mps 725 mmHg 78%
    23:00 -1°C° 0.1 mm 11 mps 725 mmHg 79%

    1 March, Sunday

    Time Temperature Precipitation Wind Pressure Humidity
    00:00 -1°C° 0.1 mm 11 mps 726 mmHg 81%
    01:00 0°C° 0.1 mm 10 mps 726 mmHg 80%
    02:00 0°C° 0.1 mm 10 mps 726 mmHg 79%
    03:00 0°C° 0.1 mm 10 mps 727 mmHg 78%
    04:00 0°C° 0 mm 9 mps 726 mmHg 77%
    05:00 0°C° 0 mm 9 mps 726 mmHg 75%
    06:00 -1°C° 0 mm 9 mps 726 mmHg 73%
    07:00 0°C° 0.2 mm 9 mps 726 mmHg 73%
    08:00 0°C° 0.2 mm 9 mps 726 mmHg 73%
    09:00 +1°C° 0.2 mm 9 mps 726 mmHg 73%
    10:00 +2°C° 0 mm 9 mps 726 mmHg 68%
    11:00 +2°C° 0 mm 10 mps 726 mmHg 62%
    12:00 +3°C° 0 mm 10 mps 726 mmHg 57%
    13:00 +3°C° 0 mm 10 mps 725 mmHg 58%
    14:00 +3°C° 0 mm 10 mps 725 mmHg 59%
    15:00 +3°C° 0 mm 9 mps 725 mmHg 60%
    16:00 +3°C° 0 mm 9 mps 724 mmHg 66%
    17:00 +2°C° 0 mm 9 mps 724 mmHg 73%
    18:00 +2°C° 0 mm 8 mps 724 mmHg 80%
    19:00 +2°C° 0.2 mm 8 mps 724 mmHg 82%
    20:00 +1°C° 0.2 mm 8 mps 724 mmHg 85%
    21:00 +1°C° 0.2 mm 8 mps 723 mmHg 88%
    22:00 +1°C° 0.3 mm 8 mps 723 mmHg 88%
    23:00 +2°C° 0.3 mm 7 mps 723 mmHg 88%

    2 March, Monday

    Time Temperature Precipitation Wind Pressure Humidity
    00:00 +2°C° 0.3 mm 7 mps 723 mmHg 88%
    01:00 +2°C° 0.6 mm 6 mps 723 mmHg 88%
    02:00 +2°C° 0.6 mm 6 mps 723 mmHg 88%
    03:00 +2°C° 0.6 mm 6 mps 723 mmHg 88%
    04:00 +2°C° 0.5 mm 6 mps 724 mmHg 88%
    05:00 +2°C° 0.5 mm 7 mps 724 mmHg 87%
    06:00 +2°C° 0.5 mm 7 mps 724 mmHg 87%
    07:00 +2°C° 0.1 mm 7 mps 725 mmHg 86%
    08:00 +2°C° 0.1 mm 7 mps 726 mmHg 84%
    09:00 +2°C° 0.1 mm 7 mps 727 mmHg 83%
    10:00 +3°C° 0.1 mm 7 mps 728 mmHg 81%
    11:00 +3°C° 0.1 mm 7 mps 728 mmHg 79%
    12:00 +4°C° 0.1 mm 8 mps 729 mmHg 77%
    13:00 +4°C° 0.1 mm 8 mps 730 mmHg 75%
    14:00 +4°C° 0.1 mm 8 mps 731 mmHg 74%
    15:00 +4°C° 0.1 mm 8 mps 731 mmHg 72%
    16:00 +3°C° 0.1 mm 7 mps 732 mmHg 73%
    17:00 +3°C° 0.1 mm 7 mps 733 mmHg 74%
    18:00 +2°C° 0.1 mm 6 mps 733 mmHg 75%
    19:00 +2°C° 0.1 mm 6 mps 734 mmHg 77%
    20:00 0°C° 0.1 mm 7 mps 735 mmHg 79%
    21:00 0°C° 0.1 mm 7 mps 736 mmHg 80%
    22:00 +1°C° 0.2 mm 6 mps 737 mmHg 83%
    23:00 +1°C° 0.2 mm 6 mps 737 mmHg 85%
    Show more